[[{"header":{"parameterUnit":"m.s-1","parameterCategory":1,"la1":30.2992,"la2":30.254,"lo1":-89.0895,"lo2":-89.0443,"dy":0.0025,"dx":0.0025,"nx":19,"ny":19,"refTime":"2026-03-19T09:00:00:Z","depth":0,"parameterNumber":2,"parameterNumberName":"U-component_of_WINDS"},"data":[0,0,0,2.8342,2.8343,2.8407,2.8408,2.8502,2.8503,0,0,0,0,0,0,0,0,0,0,0,2.8332,2.8333,2.8342,2.8344,2.8407,2.8408,2.8502,2.8503,0,0,0,0,0,0,0,0,0,0,0,2.8332,2.8333,2.8334,2.8344,2.8407,2.8408,2.8502,2.8448,0,0,0,0,0,0,0,0,0,0,2.8384,2.8385,2.8333,2.8334,2.8344,2.8407,2.8408,2.8446,2.8452,2.8479,0,2.8507,0,2.8507,2.851,2.8511,0,0,0,2.8336,2.838,2.8389,2.8335,2.8345,2.8407,2.8377,2.8449,2.8456,2.8487,2.8508,2.8511,2.8508,2.8511,2.8511,2.8691,2.8692,0,0,2.8333,2.8349,2.8384,2.8394,2.8386,2.8375,2.8379,2.8453,2.8477,2.8509,2.8513,2.851,2.8512,2.8512,2.869,2.8692,0,0,0,2.8328,2.8347,2.8353,2.839,2.8401,2.8377,2.8381,2.8473,2.8474,2.8514,2.8511,2.8512,2.8514,2.8689,2.8691,2.8762,0,0,0,2.8325,2.8344,2.8352,2.8363,2.84,2.8438,2.84,2.8469,2.8477,2.851,2.8512,2.8515,2.8688,2.869,2.8757,2.8792,0,0,0,2.8325,2.8344,2.8356,2.8363,2.8392,2.8437,2.8441,2.847,2.8475,2.8511,2.8515,2.8687,2.8689,2.8753,2.8785,2.884,0,0,0,2.833,2.8422,2.8358,2.8459,2.8391,2.8481,2.8441,2.8508,2.8547,2.8513,2.8688,2.869,2.8751,2.8781,2.8836,2.8888,2.8912,0,0,2.8455,2.8437,2.8495,2.844,2.8545,2.847,2.8585,2.8607,2.8596,2.866,2.8664,2.8758,2.8785,2.8839,2.9046,2.9065,0,0,0,2.854,2.8581,2.8605,2.8643,2.8661,2.8677,2.8679,2.8686,2.8738,2.8633,2.8795,2.881,2.8841,2.8865,2.8881,2.8905,2.8703,2.8703,2.8703,2.874,2.8718,2.8811,2.8796,2.8833,2.8832,2.8858,2.8867,2.8838,2.8876,2.8894,2.9022,2.9051,2.9063,2.9088,2.8923,2.8923,2.8923,2.8924,2.8917,2.897,2.8925,2.8998,2.8975,2.9036,2.9037,2.9013,2.9064,2.9009,2.9035,2.8972,2.9085,2.9105,2.8929,2.8928,2.8927,2.8927,2.8926,2.9043,2.9064,2.907,2.9117,2.9156,2.9139,2.9189,2.9167,2.9147,2.9174,2.9187,2.9186,2.9178,2.9182,2.9183,2.9183,2.9183,2.9184,2.9184,2.9169,2.9173,2.9218,2.9241,2.9258,2.928,2.9276,2.9293,2.9306,2.9286,2.9286,2.925,2.9101,2.9061,2.9191,2.9189,2.9189,2.9188,2.9187,2.9351,2.9305,2.9374,2.9392,2.9414,2.9451,2.9422,2.9457,2.9468,2.9492,2.945,2.9345,2.9326,2.9313,2.928,2.9457,2.9457,2.9457,2.9457,2.9454,2.9442,2.9504,2.9533,2.9559,2.9538,2.9612,2.9609,2.96,2.9604,2.9576,2.9531,2.9519,2.9507,2.9489,2.9458,2.9677,2.9677,2.9677,2.9562,2.9551,2.9619,2.9607,2.9621,2.9633,2.9701,2.9735,2.9714,2.9686,2.9606,2.9596,2.9524,2.9503,2.9471,2.9444,2.9386,0,0]},{"header":{"parameterUnit":"m.s-1","parameterCategory":1,"la1":30.2992,"la2":30.254,"lo1":-89.0895,"lo2":-89.0443,"dy":0.0025,"dx":0.0025,"nx":19,"ny":19,"refTime":"2026-03-19T09:00:00:Z","depth":0,"parameterNumber":3,"parameterNumberName":"V-component_of_WINDS"},"data":[0,0,0,3.4463,3.4463,3.4443,3.4442,3.4435,3.4436,0,0,0,0,0,0,0,0,0,0,0,3.4484,3.4485,3.4463,3.4463,3.4443,3.4442,3.4435,3.4436,0,0,0,0,0,0,0,0,0,0,0,3.4484,3.4484,3.4485,3.4463,3.4443,3.4442,3.4435,3.4443,0,0,0,0,0,0,0,0,0,0,3.446,3.4494,3.4484,3.4485,3.4463,3.4443,3.4442,3.4443,3.4443,3.4454,0,3.4471,0,3.4453,3.4437,3.4437,0,0,0,3.4451,3.4495,3.4476,3.4485,3.4463,3.4443,3.4448,3.4443,3.4442,3.4454,3.447,3.4469,3.4453,3.4437,3.4437,3.4543,3.4544,0,0,3.4453,3.4488,3.4477,3.4476,3.4484,3.4449,3.4448,3.4442,3.4462,3.447,3.4469,3.4453,3.4437,3.4437,3.4542,3.4544,0,0,0,3.4464,3.4489,3.447,3.4477,3.4472,3.4449,3.4447,3.4462,3.4453,3.4468,3.4453,3.4437,3.4437,3.4541,3.4543,3.4627,0,0,0,3.4464,3.4496,3.4471,3.4493,3.4473,3.4468,3.4468,3.4453,3.4451,3.4453,3.4437,3.4437,3.454,3.4542,3.4623,3.4661,0,0,0,3.448,3.4497,3.45,3.4494,3.4487,3.4467,3.4457,3.4452,3.4443,3.4437,3.4437,3.4539,3.4542,3.4618,3.4654,3.4696,0,0,0,3.4508,3.4577,3.4502,3.4572,3.4488,3.4521,3.4457,3.4479,3.4485,3.4437,3.454,3.4543,3.4617,3.4649,3.4692,3.4738,3.4761,0,0,3.4614,3.4591,3.4629,3.4561,3.4617,3.4521,3.4587,3.4558,3.4525,3.4538,3.454,3.4624,3.4653,3.4696,3.4882,3.49,0,0,0,3.4674,3.4702,3.4709,3.4716,3.4696,3.4681,3.4638,3.4626,3.4636,3.454,3.4652,3.4668,3.4691,3.4711,3.4727,3.4742,3.4554,3.4554,3.4554,3.4875,3.4828,3.4887,3.4838,3.4845,3.4799,3.4799,3.4775,3.4727,3.4754,3.4757,3.4876,3.49,3.4912,3.4929,3.4779,3.4779,3.478,3.478,3.5024,3.5054,3.4987,3.502,3.4969,3.4995,3.4952,3.4916,3.493,3.487,3.4888,3.4825,3.4934,3.4946,3.4786,3.4785,3.4784,3.4783,3.4783,3.5147,3.5153,3.5139,3.5142,3.5148,3.5095,3.5111,3.5065,3.5021,3.5039,3.5035,3.5033,3.5023,3.5041,3.5041,3.5042,3.5042,3.5042,3.5043,3.528,3.5261,3.5282,3.5265,3.5261,3.525,3.5202,3.5196,3.5177,3.5142,3.5141,3.5087,3.4955,3.492,3.5049,3.5048,3.5047,3.5046,3.5046,3.5444,3.5399,3.5431,3.5428,3.5401,3.5408,3.5349,3.534,3.5328,3.5337,3.5279,3.5189,3.5161,3.5148,3.5119,3.5291,3.5291,3.5291,3.5291,3.5546,3.5528,3.5548,3.5544,3.5536,3.5484,3.5517,3.5479,3.5432,3.5421,3.539,3.5348,3.5337,3.5315,3.5299,3.5271,3.5478,3.5478,3.5478,3.5642,3.562,3.5659,3.5615,3.5589,3.5568,3.5596,3.5591,3.5529,3.5484,3.541,3.5402,3.5335,3.5316,3.5269,3.5244,3.5192,0,0]}]]